Hourly Data Report for October 21, 2016

All times are specified in Local Standard Time (LST). Add 1 hour to adjust for Daylight Saving Time where and when it is observed.

BATHURST A
NEW BRUNSWICK

47°37'47.000" N
65°44'20.000" W
58.80 m
8100505
71574
ZBF

Download Data

Hourly Data (October 2016)
Hourly Data Report for October 21, 2016
Temp Definition
°C
Dew Point Temp Definition
°C
Rel Hum Definition
%
Wind Dir Definition
10's deg

Wind Spd Definition
km/h
Visibility Definition
km
Stn Press Definition
kPa
Hmdx Definition


Wind Chill Definition


Weather Definition


TIME
00:00 Legend Double Dagger 7.6 6.6 93 36 1 8.1 101.88     Rain,Fog
01:00 Legend Double Dagger 7.1 6.7 97 33 3 8.1 101.91     Rain,Fog
02:00 Legend Double Dagger 6.9 6.6 98 36 1 6.4 101.84     Rain,Fog
03:00 Legend Double Dagger 6.7 6.6 99 0 1 6.4 101.78     Rain,Fog
04:00 Legend Double Dagger 6.7 6.6 99 36 2 4.8 101.70     Fog
05:00 Legend Double Dagger 7.2 6.9 98   0 8.1 101.64     Fog
06:00 Legend Double Dagger 8.2 7.3 94 13 6 8.1 101.60     Fog
07:00 Legend Double Dagger 8.7 7.5 92 9 10 16.1 101.52     Rain Showers
08:00 Legend Double Dagger 8.9 7.7 92 9 14 19.3 101.47     Mostly Cloudy
09:00 Legend Double Dagger 8.9 8.0 94 8 13 12.9 101.44     Moderate Rain
10:00 Legend Double Dagger 8.7 8.1 96 7 13 9.7 101.27     Moderate Rain,Fog
11:00 Legend Double Dagger 9.1 8.7 97 11 13 9.7 101.16     Rain,Fog
12:00 Legend Double Dagger 9.3 8.9 97 10 11 6.4 101.05     Rain,Fog
13:00 Legend Double Dagger 9.4 9.0 97 10 13 4.8 100.92     Moderate Rain,Fog
14:00 Legend Double Dagger 9.7 9.4 98 10 10 8.1 100.80     Moderate Rain,Fog
15:00 Legend Double Dagger 9.9 9.5 97 8 7 9.7 100.75     Moderate Rain,Fog
16:00 Legend Double Dagger 10.1 9.8 98 8 4 8.1 100.64     Rain,Fog
17:00 Legend Double Dagger 10.2 9.9 98 12 4 4.8 100.58     Rain,Fog
18:00 Legend Double Dagger 10.2 10.1 99 36 1 3.2 100.54     Drizzle,Fog
19:00 Legend Double Dagger 10.1 10.0 99 36 3 2.4 100.51     Drizzle,Fog
20:00 Legend Double Dagger 10.1 10.0 99 36 1 0.6 100.45     Drizzle,Fog
21:00 Legend Double Dagger 10.1 10.1 100 6 3 0.6 100.37     Drizzle,Fog
22:00 Legend Double Dagger 10.2 10.2 100 36 1 0.6 100.30     Drizzle,Fog
23:00 Legend Double Dagger 10.3 10.3 100 34 7 2.4 100.22     Rain,Fog

Notes on Data Quality.

Legend

  • E = Estimated
  • M = Missing
  • NA = Not Available
  • ‡ = Partner data that is not subject to review by the National Climate Archives
Date modified: